TimeCDT,TemperatureF,Dew PointF,Humidity,Sea Level PressureIn,VisibilityMPH,Wind Direction,Wind SpeedMPH,Gust SpeedMPH,PrecipitationIn,Events,Conditions,WindDirDegrees,DateUTC
12:15 AM,73.2,73.0,99,30.11,5.0,Calm,Calm,-,N/A,,Clear,0,2013-07-08 05:15:00
12:35 AM,72.3,72.3,100,30.11,4.0,Calm,Calm,-,N/A,,Clear,0,2013-07-08 05:35:00
12:55 AM,72.0,72.0,100,30.11,5.0,Calm,Calm,-,N/A,,Clear,0,2013-07-08 05:55:00
1:15 AM,72.0,72.0,100,30.10,2.0,Calm,Calm,-,N/A,,Clear,0,2013-07-08 06:15:00
1:35 AM,71.4,71.4,100,30.10,2.5,Calm,Calm,-,N/A,,Clear,0,2013-07-08 06:35:00
1:55 AM,72.0,72.0,100,30.11,1.0,Calm,Calm,-,N/A,,Mist,0,2013-07-08 06:55:00
2:15 AM,71.1,71.1,100,30.10,1.8,Calm,Calm,-,N/A,,Mist,0,2013-07-08 07:15:00
2:35 AM,71.1,71.1,100,30.10,5.0,Calm,Calm,-,N/A,,Clear,0,2013-07-08 07:35:00
2:55 AM,71.1,71.1,100,30.10,4.0,Calm,Calm,-,N/A,,Clear,0,2013-07-08 07:55:00
3:15 AM,70.5,70.5,100,30.11,7.0,Calm,Calm,-,N/A,,Clear,0,2013-07-08 08:15:00
3:35 AM,70.5,70.5,100,30.11,7.0,Calm,Calm,-,N/A,,Clear,0,2013-07-08 08:35:00
4:15 AM,69.4,69.4,100,30.11,3.0,Calm,Calm,-,N/A,,Clear,0,2013-07-08 09:15:00
4:35 AM,69.4,69.4,100,30.12,7.0,South,3.5,-,N/A,,Clear,190,2013-07-08 09:35:00
4:55 AM,70.0,70.0,100,30.12,7.0,Calm,Calm,-,N/A,,Clear,0,2013-07-08 09:55:00
5:15 AM,70.5,70.5,100,30.12,7.0,Calm,Calm,-,N/A,,Clear,0,2013-07-08 10:15:00
5:55 AM,69.8,69.8,100,30.12,7.0,Calm,Calm,-,N/A,,Clear,0,2013-07-08 10:55:00
6:15 AM,70.9,70.7,99,30.13,7.0,SSW,3.5,-,N/A,,Clear,210,2013-07-08 11:15:00
6:35 AM,71.8,71.1,98,30.13,7.0,SSW,3.5,-,N/A,,Clear,200,2013-07-08 11:35:00
6:55 AM,73.0,72.0,96,30.13,7.0,SSW,4.6,-,N/A,,Clear,210,2013-07-08 11:55:00
7:15 AM,74.3,72.5,94,30.13,10.0,SSW,4.6,-,N/A,,Clear,210,2013-07-08 12:15:00
7:35 AM,75.6,73.4,93,30.14,10.0,SSW,4.6,-,N/A,,Clear,210,2013-07-08 12:35:00
7:55 AM,76.8,74.3,92,30.14,10.0,SW,5.8,-,N/A,,Clear,230,2013-07-08 12:55:00
8:15 AM,78.3,75.0,90,30.15,10.0,SW,4.6,-,N/A,,Clear,230,2013-07-08 13:15:00
8:35 AM,79.2,75.2,88,30.15,10.0,SSW,3.5,-,N/A,,Clear,210,2013-07-08 13:35:00
8:55 AM,80.4,76.1,87,30.15,10.0,South,3.5,-,N/A,,Clear,190,2013-07-08 13:55:00
9:15 AM,81.7,76.5,84,30.15,10.0,WSW,4.6,-,N/A,,Clear,240,2013-07-08 14:15:00
9:35 AM,82.4,75.9,81,30.16,10.0,SW,3.5,-,N/A,,Clear,220,2013-07-08 14:35:00
9:55 AM,83.1,75.4,77,30.16,10.0,WSW,4.6,-,N/A,,Clear,240,2013-07-08 14:55:00
10:15 AM,84.0,75.0,74,30.16,10.0,SW,5.8,-,N/A,,Clear,230,2013-07-08 15:15:00
10:35 AM,85.3,75.7,73,30.16,10.0,WSW,3.5,-,N/A,,Clear,240,2013-07-08 15:35:00
10:55 AM,85.3,73.9,69,30.17,10.0,WSW,5.8,-,N/A,,Scattered Clouds,240,2013-07-08 15:55:00
11:15 AM,86.5,72.1,62,30.17,10.0,WSW,5.8,-,N/A,,Clear,250,2013-07-08 16:15:00
11:35 AM,87.1,72.7,62,30.17,10.0,SW,4.6,-,N/A,,Clear,230,2013-07-08 16:35:00
11:55 AM,87.4,72.7,61,30.16,10.0,SSW,4.6,-,N/A,,Scattered Clouds,200,2013-07-08 16:55:00
12:15 PM,87.8,72.0,59,30.16,10.0,SW,8.1,-,N/A,,Scattered Clouds,230,2013-07-08 17:15:00
12:35 PM,88.5,71.2,56,30.16,10.0,SSW,6.9,-,N/A,,Scattered Clouds,200,2013-07-08 17:35:00
12:55 PM,88.9,72.0,57,30.15,10.0,SSW,3.5,-,N/A,,Scattered Clouds,200,2013-07-08 17:55:00
1:15 PM,89.1,71.8,57,30.15,10.0,Calm,Calm,-,N/A,,Scattered Clouds,0,2013-07-08 18:15:00
1:35 PM,88.0,72.1,59,30.14,10.0,West,6.9,-,N/A,,Mostly Cloudy,270,2013-07-08 18:35:00
1:55 PM,89.6,72.5,57,30.13,10.0,SW,3.5,-,N/A,,Mostly Cloudy,220,2013-07-08 18:55:00
2:15 PM,89.6,72.0,56,30.13,10.0,SW,5.8,-,N/A,,Scattered Clouds,220,2013-07-08 19:15:00
2:35 PM,89.6,70.3,53,30.12,10.0,SW,4.6,-,N/A,,Clear,220,2013-07-08 19:35:00
2:55 PM,89.8,71.2,54,30.11,10.0,SW,5.8,-,N/A,,Clear,230,2013-07-08 19:55:00
3:15 PM,89.8,70.9,54,30.11,10.0,SW,6.9,-,N/A,,Scattered Clouds,230,2013-07-08 20:15:00
3:35 PM,90.0,70.5,53,30.11,10.0,SW,6.9,-,N/A,,Scattered Clouds,230,2013-07-08 20:35:00
3:55 PM,89.6,71.1,54,30.10,10.0,SSW,3.5,-,N/A,,Scattered Clouds,210,2013-07-08 20:55:00
4:15 PM,90.0,71.6,55,30.10,10.0,West,6.9,-,N/A,,Mostly Cloudy,270,2013-07-08 21:15:00
4:35 PM,89.1,71.2,55,30.10,10.0,SW,3.5,-,N/A,,Mostly Cloudy,220,2013-07-08 21:35:00
4:55 PM,88.5,72.7,59,30.09,10.0,West,4.6,-,N/A,,Scattered Clouds,260,2013-07-08 21:55:00
5:15 PM,89.6,71.8,56,30.09,10.0,SW,5.8,-,N/A,,Clear,230,2013-07-08 22:15:00
5:35 PM,89.4,72.1,57,30.08,10.0,WSW,9.2,-,N/A,,Clear,240,2013-07-08 22:35:00
5:55 PM,88.9,71.6,56,30.07,10.0,WSW,5.8,-,N/A,,Scattered Clouds,240,2013-07-08 22:55:00
6:15 PM,88.2,72.5,60,30.07,10.0,WSW,5.8,-,N/A,,Clear,240,2013-07-08 23:15:00
6:35 PM,87.4,73.6,63,30.07,10.0,WSW,5.8,-,N/A,,Clear,240,2013-07-08 23:35:00
6:55 PM,86.5,74.5,67,30.07,10.0,WSW,5.8,-,N/A,,Clear,240,2013-07-08 23:55:00
7:15 PM,85.5,74.1,69,30.08,10.0,WSW,5.8,-,N/A,,Clear,240,2013-07-09 00:15:00
7:35 PM,84.7,74.1,70,30.08,10.0,WSW,3.5,-,N/A,,Clear,250,2013-07-09 00:35:00
7:55 PM,82.8,74.5,76,30.08,10.0,SW,3.5,-,N/A,,Clear,220,2013-07-09 00:55:00
8:15 PM,81.3,73.6,77,30.08,10.0,Calm,Calm,-,N/A,,Clear,0,2013-07-09 01:15:00
8:35 PM,82.4,73.0,73,30.09,10.0,Calm,Calm,-,N/A,,Clear,0,2013-07-09 01:35:00
8:55 PM,80.8,72.9,77,30.09,10.0,Calm,Calm,-,N/A,,Clear,0,2013-07-09 01:55:00
9:15 PM,79.7,73.9,82,30.10,7.0,Calm,Calm,-,N/A,,Clear,0,2013-07-09 02:15:00
9:35 PM,78.1,74.3,88,30.10,7.0,Calm,Calm,-,N/A,,Clear,0,2013-07-09 02:35:00
9:55 PM,77.7,74.8,91,30.10,10.0,Calm,Calm,-,N/A,,Clear,0,2013-07-09 02:55:00
10:15 PM,77.2,74.8,92,30.11,10.0,Calm,Calm,-,N/A,,Clear,0,2013-07-09 03:15:00
10:35 PM,77.0,75.2,94,30.11,10.0,Calm,Calm,-,N/A,,Clear,0,2013-07-09 03:35:00
10:55 PM,76.5,74.5,94,30.11,10.0,Calm,Calm,-,N/A,,Clear,0,2013-07-09 03:55:00
11:15 PM,76.1,74.7,95,30.11,10.0,Calm,Calm,-,N/A,,Clear,0,2013-07-09 04:15:00
11:35 PM,75.7,74.5,96,30.12,10.0,Calm,Calm,-,N/A,,Clear,0,2013-07-09 04:35:00
11:55 PM,74.7,73.9,98,30.12,10.0,Calm,Calm,-,N/A,,Clear,0,2013-07-09 04:55:00